Granite Falls, MN

5:51 PM CST on February 17, 2018 (GMT -0600)
Granite Falls

Weather History for KGDB - October, 2013

Change the Weather History Date:

Sunday, October 27, 2013

  Actual Average (KMVE) Record (KMVE)
Temperature  
Mean Temperature 40 °F -  
Max Temperature 56 °F 58 °F 86 °F (1955)
Min Temperature 25 °F 34 °F 13 °F (1976)
Degree Days  
Heating Degree Days 24    
Moisture  
Dew Point 28 °F    
Average Humidity 67    
Maximum Humidity 88    
Minimum Humidity 41    
Precipitation  
Precipitation 0.00 in - - ()
Sea Level Pressure  
Sea Level Pressure 29.93 in    
Wind  
Wind Speed 8 mph (WNW)    
Max Wind Speed 16 mph    
Max Gust Speed 22 mph    
Visibility 8 miles    
Events      
Averages and records for this station are not official NWS values.
T = Trace of Precipitation, MM = Missing Value Source: NWS Daily Summary

Daily Weather History Graph

Daily Weather History Graph

Search for Another Location

Airport or City:

Trip Planner

Search our weather history database for the weather conditions in past years. The results will help you decide how hot, cold, wet, or windy it might be!

Date:

Astronomy

Oct. 27, 2013 Rise Set
Actual Time 7:53 AM CDT 6:17 PM CDT
Civil Twilight 7:23 AM CDT 6:47 PM CDT
Nautical Twilight 6:49 AM CDT 7:22 PM CDT
Astronomical Twilight 6:15 AM CDT 7:55 PM CDT
Moon 12:35 AM CDT (10/27) 2:42 PM CDT (10/27)
Length of Visible Light 11h 24m
Length of Day
10h 23m
Last Quarter, 43% of the Moon is Illuminated
Oct 27
Last Quarter
Nov 3
New
Nov 9
First Quarter
Nov 17
Full
Nov 25
Last Quarter

Hourly Weather History & Observations

Time (CDT) Temp. Windchill Dew Point Humidity Pressure Visibility Wind Dir Wind Speed Gust Speed Precip Events Conditions
12:13 AM 25.2 °F 18.3 °F 22.1 °F 88% 30.05 in 10.0 mi South 5.8 mph - N/A   Clear
12:33 AM 26.1 °F 19.4 °F 22.6 °F 87% 30.03 in 7.0 mi South 5.8 mph - N/A   Clear
12:53 AM 25.0 °F 15.5 °F 21.9 °F 88% 30.02 in 7.0 mi South 9.2 mph - N/A   Clear
1:13 AM 25.5 °F 16.9 °F 22.3 °F 88% 30.01 in 10.0 mi South 8.1 mph - N/A   Clear
1:33 AM 26.4 °F 18.0 °F 23.0 °F 87% 30.00 in 10.0 mi South 8.1 mph - N/A   Clear
1:53 AM 26.6 °F 19.1 °F 23.0 °F 86% 29.99 in 7.0 mi South 6.9 mph - N/A   Clear
2:12 AM 26.2 °F 18.6 °F 23.0 °F 88% 29.98 in 10.0 mi South 6.9 mph - N/A   Clear
2:33 AM 26.6 °F 20.0 °F 23.0 °F 86% 29.98 in 7.0 mi South 5.8 mph - N/A   Clear
2:53 AM 25.9 °F 19.2 °F 22.6 °F 88% 29.97 in 10.0 mi South 5.8 mph - N/A   Clear
3:13 AM 25.7 °F 17.1 °F 22.1 °F 86% 29.96 in 10.0 mi South 8.1 mph - N/A   Clear
3:32 AM 26.4 °F 18.0 °F 23.2 °F 88% 29.94 in 10.0 mi South 8.1 mph - N/A   Clear
3:53 AM 26.6 °F 18.2 °F 23.0 °F 86% 29.94 in 10.0 mi South 8.1 mph - N/A   Clear
4:13 AM 27.0 °F 18.7 °F 23.4 °F 86% 29.93 in 10.0 mi SSE 8.1 mph - N/A   Clear
4:32 AM 27.3 °F 19.9 °F 23.9 °F 87% 29.91 in 10.0 mi SSE 6.9 mph - N/A   Clear
4:53 AM 28.0 °F 20.8 °F 24.3 °F 86% 29.90 in 10.0 mi South 6.9 mph - N/A   Clear
5:12 AM 29.1 °F 21.3 °F 24.8 °F 84% 29.90 in 10.0 mi South 8.1 mph - N/A   Clear
5:33 AM 28.2 °F 22.0 °F 24.3 °F 85% 29.89 in 10.0 mi SSE 5.8 mph - N/A   Clear
5:52 AM 28.4 °F 23.3 °F 24.6 °F 86% 29.89 in 10.0 mi SE 4.6 mph - N/A   Clear
6:13 AM 28.2 °F 22.0 °F 24.4 °F 86% 29.88 in 7.0 mi SSE 5.8 mph - N/A   Clear
6:33 AM 28.2 °F 22.0 °F 24.3 °F 85% 29.86 in 7.0 mi SSE 5.8 mph - N/A   Clear
6:53 AM 28.2 °F 23.1 °F 25.0 °F 88% 29.85 in 7.0 mi SE 4.6 mph - N/A   Clear
7:13 AM 28.0 °F 20.8 °F 24.4 °F 86% 29.84 in 7.0 mi SE 6.9 mph - N/A   Clear
7:33 AM 27.0 °F 20.5 °F 23.9 °F 88% 29.83 in 7.0 mi SSE 5.8 mph - N/A   Clear
7:52 AM 28.0 °F 22.8 °F 24.8 °F 88% 29.83 in 10.0 mi SE 4.6 mph - N/A   Clear
8:13 AM 28.4 °F 21.2 °F 24.3 °F 84% 29.83 in 7.0 mi SSE 6.9 mph - N/A   Clear
8:32 AM 28.8 °F 23.7 °F 25.5 °F 88% 29.83 in 7.0 mi SSE 4.6 mph - N/A   Clear
8:53 AM 32.0 °F 26.4 °F 27.7 °F 84% 29.83 in 7.0 mi SSE 5.8 mph - N/A   Clear
9:13 AM 35.1 °F 30.1 °F 29.5 °F 80% 29.82 in 7.0 mi South 5.8 mph - N/A   Clear
9:33 AM 38.3 °F 31.9 °F 30.6 °F 74% 29.82 in 7.0 mi South 9.2 mph - N/A   Clear
9:53 AM 40.8 °F 37.8 °F 31.1 °F 68% 29.82 in 7.0 mi SSW 4.6 mph - N/A   Clear
10:13 AM 42.8 °F 37.0 °F 31.8 °F 65% 29.86 in 7.0 mi WNW 10.4 mph - N/A   Clear
10:32 AM 44.4 °F 41.2 °F 32.0 °F 62% 29.85 in 7.0 mi West 5.8 mph - N/A   Clear
10:53 AM 46.4 °F 43.5 °F 31.3 °F 56% 29.84 in 7.0 mi West 5.8 mph - N/A   Clear
11:13 AM 48.7 °F - 31.3 °F 51% 29.84 in 7.0 mi West 8.1 mph - N/A   Clear
11:32 AM 50.2 °F - 31.8 °F 49% 29.84 in 7.0 mi WNW 8.1 mph - N/A   Clear
11:53 AM 52.3 °F - 30.7 °F 44% 29.84 in 7.0 mi WNW 9.2 mph - N/A   Clear
12:12 PM 52.7 °F - 30.9 °F 43% 29.84 in 7.0 mi NNW 8.1 mph - N/A   Clear
12:33 PM 52.7 °F - 31.1 °F 44% 29.84 in 7.0 mi NW 6.9 mph - N/A   Clear
12:53 PM 53.2 °F - 31.3 °F 43% 29.84 in 7.0 mi NNW 8.1 mph - N/A   Clear
1:13 PM 53.8 °F - 31.6 °F 43% 29.84 in 7.0 mi NNW 8.1 mph - N/A   Clear
1:32 PM 54.1 °F - 32.2 °F 43% 29.84 in 7.0 mi NNW 6.9 mph - N/A   Clear
1:53 PM 54.9 °F - 32.4 °F 42% 29.84 in 7.0 mi NW 9.2 mph - N/A   Clear
2:13 PM 55.8 °F - 33.1 °F 42% 29.84 in 7.0 mi NNW 11.5 mph 16.1 mph N/A   Clear
2:32 PM 56.3 °F - 33.1 °F 41% 29.84 in 7.0 mi NNW 11.5 mph 19.6 mph N/A   Clear
2:53 PM 55.8 °F - 33.3 °F 43% 29.85 in 7.0 mi NNW 13.8 mph 19.6 mph N/A   Clear
3:13 PM 55.6 °F - 33.4 °F 43% 29.85 in 10.0 mi NNW 16.1 mph 20.7 mph N/A   Clear
3:32 PM 55.8 °F - 33.3 °F 43% 29.86 in 7.0 mi NNW 12.7 mph 21.9 mph N/A   Clear
3:53 PM 55.8 °F - 32.9 °F 42% 29.87 in 7.0 mi North 13.8 mph 19.6 mph N/A   Clear
4:13 PM 55.8 °F - 32.7 °F 42% 29.89 in 7.0 mi NNW 12.7 mph - N/A   Clear
4:33 PM 55.8 °F - 32.5 °F 41% 29.89 in 10.0 mi NNW 11.5 mph 18.4 mph N/A   Clear
4:52 PM 55.0 °F - 32.7 °F 43% 29.90 in 7.0 mi NNW 11.5 mph - N/A   Clear
5:13 PM 54.5 °F - 32.5 °F 43% 29.91 in 10.0 mi NNW 11.5 mph - N/A   Clear
5:33 PM 54.0 °F - 32.7 °F 45% 29.92 in 7.0 mi NNW 10.4 mph - N/A   Clear
5:52 PM 52.5 °F - 32.0 °F 46% 29.93 in 10.0 mi NNW 12.7 mph 17.3 mph N/A   Clear
6:13 PM 50.5 °F - 32.0 °F 49% 29.95 in 10.0 mi NNW 11.5 mph 18.4 mph N/A   Clear
6:32 PM 48.9 °F - 32.0 °F 52% 29.97 in 10.0 mi NNW 10.4 mph 16.1 mph N/A   Clear
6:53 PM 47.3 °F - 32.0 °F 55% 29.98 in 10.0 mi NNW 8.1 mph - N/A   Clear
7:13 PM 45.5 °F 40.3 °F 31.8 °F 59% 29.99 in 10.0 mi NNW 10.4 mph - N/A   Clear
7:32 PM 44.6 °F 39.2 °F 31.1 °F 59% 30.01 in 7.0 mi NNW 10.4 mph - N/A   Clear
7:53 PM 43.7 °F 37.7 °F 30.7 °F 60% 30.02 in 7.0 mi NNW 11.5 mph - N/A   Clear
8:13 PM 42.6 °F 36.3 °F 30.6 °F 62% 30.03 in 7.0 mi NNW 11.5 mph - N/A   Clear
8:33 PM 42.3 °F 35.9 °F 30.4 °F 63% 30.05 in 7.0 mi NNW 11.5 mph - N/A   Clear
8:53 PM 41.9 °F 35.0 °F 30.2 °F 63% 30.07 in 10.0 mi North 12.7 mph 18.4 mph N/A   Clear
9:12 PM 40.6 °F 33.8 °F 30.2 °F 66% 30.08 in 10.0 mi North 11.5 mph - N/A   Clear
9:33 PM 40.3 °F 32.6 °F 30.2 °F 67% 30.09 in 10.0 mi North 13.8 mph - N/A   Clear
9:53 PM 40.1 °F 32.7 °F 30.0 °F 67% 30.11 in 7.0 mi North 12.7 mph 18.4 mph N/A   Clear
10:13 PM 39.2 °F 32.0 °F 29.3 °F 68% 30.11 in 7.0 mi North 11.5 mph - N/A   Clear
10:32 PM 38.3 °F 30.5 °F 29.1 °F 70% 30.13 in 7.0 mi North 12.7 mph - N/A   Clear
10:53 PM 37.8 °F 31.3 °F 28.9 °F 71% 30.14 in 7.0 mi North 9.2 mph - N/A   Clear
11:13 PM 36.5 °F 30.3 °F 28.6 °F 73% 30.15 in 7.0 mi North 8.1 mph - N/A   Clear
11:33 PM 34.9 °F 29.0 °F 28.0 °F 76% 30.16 in 7.0 mi North 6.9 mph - N/A   Clear
11:53 PM 33.4 °F 27.3 °F 27.5 °F 79% 30.16 in 7.0 mi North 6.9 mph - N/A   Clear